This is the latest recevied weather packets stored in our database for station/object KD8OZS. If no packets are shown the sender has not sent any weather packets the latest 10 day(s).
| Time | Temp. | Humidity | Pressure | Rain* | Wind** | Luminosity | Snow |
|---|---|---|---|---|---|---|---|
| 1787764378 | 25° C | 69% | 1009.6 hPa | 0 mm | - | 146 W/m² | - |
| 1787764074 | 23.89° C | 73% | 1009.7 hPa | 0 mm | - | 194 W/m² | - |
| 1787763769 | 23.89° C | 71% | 1009.5 hPa | 0 mm | - | 157 W/m² | - |
| 1787763465 | 24.44° C | 71% | 1009.6 hPa | 0 mm | - | 181 W/m² | - |
| 1787763160 | 25° C | 67% | 1009.3 hPa | 0 mm | - | 167 W/m² | - |
| 1787762860 | 25.56° C | 65% | 1009.8 hPa | 0 mm | - | 148 W/m² | - |
| 1787762554 | 25.56° C | 71% | 1009.7 hPa | 0 mm | - | 206 W/m² | - |
| 1787762251 | 25° C | 65% | 1010 hPa | 0 mm | - | 184 W/m² | - |
| 1787761946 | 25° C | 67% | 1009.9 hPa | 0 mm | - | 324 W/m² | - |
| 1787761641 | 24.44° C | 71% | 1009.8 hPa | 0 mm | - | 160 W/m² | - |
| 1787761337 | 25° C | 68% | 1009.8 hPa | 0 mm | - | 145 W/m² | - |
| 1787761035 | 25.56° C | 70% | 1009.6 hPa | 0 mm | - | 147 W/m² | - |
| 1787760734 | 25° C | 70% | 1010 hPa | 0 mm | - | 325 W/m² | - |
| 1787760429 | 25° C | 71% | 1009.9 hPa | 0 mm | - | 208 W/m² | - |
| 1787760124 | 24.44° C | 68% | 1010.1 hPa | 0 mm | - | 308 W/m² | - |
| 1787759820 | 24.44° C | 68% | 1010.2 hPa | 0 mm | - | 190 W/m² | - |
| 1787759516 | 25° C | 67% | 1010.1 hPa | 0 mm | - | 157 W/m² | - |
| 1787759211 | 24.44° C | 67% | 1010 hPa | 0 mm | - | 212 W/m² | - |
| 1787758910 | 24.44° C | 69% | 1010.1 hPa | 0 mm | - | 152 W/m² | - |
| 1787758606 | 23.89° C | 70% | 1010.1 hPa | 0 mm | - | 157 W/m² | - |
| 1787758304 | 23.89° C | 71% | 1010 hPa | 0 mm | - | 238 W/m² | - |
| 1787757999 | 23.89° C | 70% | 1010.1 hPa | 0 mm | - | 160 W/m² | - |
| 1787757696 | 24.44° C | 72% | 1010 hPa | 0 mm | - | 104 W/m² | - |
| 1787757395 | 24.44° C | 69% | 1009.7 hPa | 0 mm | - | 116 W/m² | - |
| 1787757090 | 23.89° C | 70% | 1009.7 hPa | 0 mm | - | 98 W/m² | - |
* Rain latest hour (hover to see other rain measurements)
** Current wind speed in m/s (hover to see current wind gust speed)